Year,Month,Day,Hour,Minute,Value (Times are PST for windgust in km/hr)
2012,02,28,00,03,1.60
2012,02,28,00,36,1.60
2012,02,28,00,42,1.60
2012,02,28,01,33,1.60
2012,02,28,01,52,1.60
2012,02,28,01,54,1.60
2012,02,28,02,03,3.20
2012,02,28,02,04,3.20
2012,02,28,02,05,1.60
2012,02,28,02,26,1.60
2012,02,28,02,40,3.20
2012,02,28,02,43,1.60
2012,02,28,02,46,1.60
2012,02,28,02,55,1.60
2012,02,28,02,57,1.60
2012,02,28,03,01,1.60
2012,02,28,03,11,6.40
2012,02,28,03,12,6.40
2012,02,28,03,29,1.60
2012,02,28,03,36,1.60
2012,02,28,03,39,1.60
2012,02,28,03,41,1.60
2012,02,28,03,42,1.60
2012,02,28,03,43,1.60
2012,02,28,03,44,3.20
2012,02,28,03,45,3.20
2012,02,28,03,46,3.20
2012,02,28,03,47,4.80
2012,02,28,03,48,1.60
2012,02,28,03,49,3.20
2012,02,28,03,50,1.60
2012,02,28,03,53,4.80
2012,02,28,03,54,1.60
2012,02,28,03,55,6.40
2012,02,28,03,56,4.80
2012,02,28,03,57,3.20
2012,02,28,03,58,1.60
2012,02,28,03,59,4.80
2012,02,28,04,04,1.60
2012,02,28,04,05,3.20
2012,02,28,04,06,3.20
2012,02,28,04,07,3.20
2012,02,28,04,08,4.80
2012,02,28,04,09,1.60
2012,02,28,04,10,4.80
2012,02,28,04,11,4.80
2012,02,28,04,12,4.80
2012,02,28,04,13,4.80
2012,02,28,04,14,4.80
2012,02,28,04,15,4.80
2012,02,28,04,16,3.20
2012,02,28,04,17,8.10
2012,02,28,04,18,4.80
2012,02,28,04,21,6.40
2012,02,28,04,22,4.80
2012,02,28,04,23,1.60
2012,02,28,04,24,6.40
2012,02,28,04,25,3.20
2012,02,28,04,26,4.80
2012,02,28,04,27,1.60
2012,02,28,04,28,1.60
2012,02,28,04,30,3.20
2012,02,28,04,31,1.60
2012,02,28,04,32,1.60
2012,02,28,04,33,1.60
2012,02,28,04,34,3.20
2012,02,28,04,36,6.40
2012,02,28,04,37,3.20
2012,02,28,04,42,3.20
2012,02,28,04,43,6.40
2012,02,28,04,44,4.80
2012,02,28,04,46,3.20
2012,02,28,04,47,3.20
2012,02,28,04,48,3.20
2012,02,28,04,49,4.80
2012,02,28,04,50,6.40
2012,02,28,04,51,4.80
2012,02,28,04,52,4.80
2012,02,28,04,53,4.80
2012,02,28,04,54,6.40
2012,02,28,04,55,4.80
2012,02,28,04,56,3.20
2012,02,28,04,57,4.80
2012,02,28,04,58,6.40
2012,02,28,04,59,1.60
2012,02,28,05,00,1.60
2012,02,28,05,01,1.60
2012,02,28,05,02,1.60
2012,02,28,05,04,3.20
2012,02,28,05,07,3.20
2012,02,28,05,14,1.60
2012,02,28,05,15,1.60
2012,02,28,05,16,1.60
2012,02,28,05,19,1.60
2012,02,28,06,08,1.60
2012,02,28,06,11,3.20
2012,02,28,06,14,3.20
2012,02,28,06,18,6.40
2012,02,28,06,28,1.60
2012,02,28,07,06,1.60
2012,02,28,07,07,3.20
2012,02,28,07,08,3.20
2012,02,28,07,20,1.60
2012,02,28,07,21,1.60
2012,02,28,07,22,1.60
2012,02,28,07,23,1.60
2012,02,28,07,32,1.60
2012,02,28,07,33,3.20
2012,02,28,07,37,1.60
2012,02,28,07,48,1.60
2012,02,28,07,59,1.60
2012,02,28,08,06,1.60
2012,02,28,08,08,1.60
2012,02,28,08,09,3.20
2012,02,28,08,16,1.60
2012,02,28,08,25,4.80
2012,02,28,08,26,4.80
2012,02,28,08,27,4.80
2012,02,28,08,28,11.30
2012,02,28,08,29,8.10
2012,02,28,08,30,11.30
2012,02,28,08,31,11.30
2012,02,28,08,32,11.30
2012,02,28,08,33,16.10
2012,02,28,08,34,17.70
2012,02,28,08,35,20.90
2012,02,28,08,36,22.50
2012,02,28,08,37,16.10
2012,02,28,08,38,14.50
2012,02,28,08,39,9.60
2012,02,28,08,40,22.50
2012,02,28,08,41,19.30
2012,02,28,08,42,20.90
2012,02,28,08,43,19.30
2012,02,28,08,44,19.30
2012,02,28,08,45,20.90
2012,02,28,08,46,16.10
2012,02,28,08,47,20.90
2012,02,28,08,48,16.10
2012,02,28,08,49,16.10
2012,02,28,08,50,14.50
2012,02,28,08,51,17.70
2012,02,28,08,52,17.70
2012,02,28,08,53,20.90
2012,02,28,08,54,16.10
2012,02,28,08,55,9.60
2012,02,28,08,56,11.30
2012,02,28,08,57,19.30
2012,02,28,08,58,20.90
2012,02,28,08,59,19.30
2012,02,28,09,00,20.90
2012,02,28,09,01,20.90
2012,02,28,09,02,9.60
2012,02,28,09,03,16.10
2012,02,28,09,04,16.10
2012,02,28,09,05,19.30
2012,02,28,09,06,19.30
2012,02,28,09,07,19.30
2012,02,28,09,08,16.10
2012,02,28,09,09,9.60
2012,02,28,09,10,11.30
2012,02,28,09,11,16.10
2012,02,28,09,12,19.30
2012,02,28,09,13,24.20
2012,02,28,09,14,17.70
2012,02,28,09,15,17.70
2012,02,28,09,16,22.50
2012,02,28,09,17,25.70
2012,02,28,09,18,17.70
2012,02,28,09,19,20.90
2012,02,28,09,20,24.20
2012,02,28,09,21,25.70
2012,02,28,09,22,24.20
2012,02,28,09,23,24.20
2012,02,28,09,24,19.30
2012,02,28,09,25,20.90
2012,02,28,09,26,20.90
2012,02,28,09,27,17.70
2012,02,28,09,28,16.10
2012,02,28,09,29,25.70
2012,02,28,09,30,32.20
2012,02,28,09,31,27.40
2012,02,28,09,32,19.30
2012,02,28,09,33,20.90
2012,02,28,09,34,19.30
2012,02,28,09,35,20.90
2012,02,28,09,36,14.50
2012,02,28,09,37,17.70
2012,02,28,09,38,22.50
2012,02,28,09,39,24.20
2012,02,28,09,40,30.60
2012,02,28,09,41,27.40
2012,02,28,09,42,19.30
2012,02,28,09,43,20.90
2012,02,28,09,44,20.90
2012,02,28,09,45,17.70
2012,02,28,09,46,14.50
2012,02,28,09,47,19.30
2012,02,28,09,48,11.30
2012,02,28,09,49,17.70
2012,02,28,09,50,20.90
2012,02,28,09,51,19.30
2012,02,28,09,52,19.30
2012,02,28,09,53,24.20
2012,02,28,09,54,24.20
2012,02,28,09,55,14.50
2012,02,28,09,56,16.10
2012,02,28,09,57,24.20
2012,02,28,09,58,22.50
2012,02,28,09,59,25.70
2012,02,28,10,00,24.20
2012,02,28,10,01,29.00
2012,02,28,10,02,29.00
2012,02,28,10,03,25.70
2012,02,28,10,04,27.40
2012,02,28,10,05,24.20
2012,02,28,10,06,27.40
2012,02,28,10,07,22.50
2012,02,28,10,08,22.50
2012,02,28,10,09,27.40
2012,02,28,10,10,33.80
2012,02,28,10,11,30.60
2012,02,28,10,12,35.40
2012,02,28,10,13,27.40
2012,02,28,10,14,29.00
2012,02,28,10,15,25.70
2012,02,28,10,16,27.40
2012,02,28,10,17,29.00
2012,02,28,10,18,22.50
2012,02,28,10,19,20.90
2012,02,28,10,20,27.40
2012,02,28,10,21,27.40
2012,02,28,10,22,25.70
2012,02,28,10,23,30.60
2012,02,28,10,24,32.20
2012,02,28,10,25,29.00
2012,02,28,10,26,27.40
2012,02,28,10,27,16.10
2012,02,28,10,28,20.90
2012,02,28,10,29,11.30
2012,02,28,10,30,16.10
2012,02,28,10,31,27.40
2012,02,28,10,32,24.20
2012,02,28,10,33,29.00
2012,02,28,10,34,29.00
2012,02,28,10,35,20.90
2012,02,28,10,36,24.20
2012,02,28,10,37,32.20
2012,02,28,10,38,35.40
2012,02,28,10,39,27.40
2012,02,28,10,40,29.00
2012,02,28,10,41,25.70
2012,02,28,10,42,37.00
2012,02,28,10,43,25.70
2012,02,28,10,44,27.40
2012,02,28,10,45,25.70
2012,02,28,10,46,29.00
2012,02,28,10,47,40.20
2012,02,28,10,48,38.60
2012,02,28,10,49,38.60
2012,02,28,10,50,24.20
2012,02,28,10,51,30.60
2012,02,28,10,52,33.80
2012,02,28,10,53,27.40
2012,02,28,10,54,37.00
2012,02,28,10,55,30.60
2012,02,28,10,56,33.80
2012,02,28,10,57,30.60
2012,02,28,10,58,27.40
2012,02,28,10,59,33.80
2012,02,28,11,00,38.60
2012,02,28,11,01,35.40
2012,02,28,11,02,30.60
2012,02,28,11,03,37.00
2012,02,28,11,04,33.80
2012,02,28,11,05,33.80
2012,02,28,11,06,40.20
2012,02,28,11,07,37.00
2012,02,28,11,08,32.20
2012,02,28,11,09,49.90
2012,02,28,11,10,48.30
2012,02,28,11,11,29.00
2012,02,28,11,12,24.20
2012,02,28,11,13,25.70
2012,02,28,11,14,33.80
2012,02,28,11,15,35.40
2012,02,28,11,16,45.10
2012,02,28,11,17,29.00
2012,02,28,11,18,35.40
2012,02,28,11,19,40.20
2012,02,28,11,20,43.50
2012,02,28,11,21,35.40
2012,02,28,11,22,41.80
2012,02,28,11,23,30.60
2012,02,28,11,24,27.40
2012,02,28,11,25,46.70
2012,02,28,11,26,53.10
2012,02,28,11,27,29.00
2012,02,28,11,28,35.40
2012,02,28,11,29,43.50
2012,02,28,11,30,38.60
2012,02,28,11,31,49.90
2012,02,28,11,32,40.20
2012,02,28,11,33,37.00
2012,02,28,11,34,41.80
2012,02,28,11,35,30.60
2012,02,28,11,36,46.70
2012,02,28,11,37,37.00
2012,02,28,11,38,33.80
2012,02,28,11,39,30.60
2012,02,28,11,40,25.70
2012,02,28,11,41,29.00
2012,02,28,11,42,25.70
2012,02,28,11,43,35.40
2012,02,28,11,44,48.30
2012,02,28,11,45,46.70
2012,02,28,11,46,29.00
2012,02,28,11,47,25.70
2012,02,28,11,48,25.70
2012,02,28,11,49,33.80
2012,02,28,11,50,27.40
2012,02,28,11,51,27.40
2012,02,28,11,52,25.70
2012,02,28,11,53,22.50
2012,02,28,11,54,25.70
2012,02,28,11,55,30.60
2012,02,28,11,56,29.00
2012,02,28,11,57,35.40
2012,02,28,11,58,29.00
2012,02,28,11,59,35.40
2012,02,28,12,00,41.80
2012,02,28,12,01,41.80
2012,02,28,12,02,32.20
2012,02,28,12,03,37.00
2012,02,28,12,04,40.20
2012,02,28,12,05,38.60
2012,02,28,12,06,37.00
2012,02,28,12,07,35.40
2012,02,28,12,08,30.60
2012,02,28,12,09,32.20
2012,02,28,12,10,24.20
2012,02,28,12,11,40.20
2012,02,28,12,12,24.20
2012,02,28,12,13,29.00
2012,02,28,12,14,30.60
2012,02,28,12,15,29.00
2012,02,28,12,16,35.40
2012,02,28,12,17,35.40
2012,02,28,12,18,40.20
2012,02,28,12,19,29.00
2012,02,28,12,20,48.30
2012,02,28,12,21,41.80
2012,02,28,12,22,40.20
2012,02,28,12,23,33.80
2012,02,28,12,24,29.00
2012,02,28,12,25,32.20
2012,02,28,12,26,41.80
2012,02,28,12,27,48.30
2012,02,28,12,28,41.80
2012,02,28,12,29,45.10
2012,02,28,12,30,33.80
2012,02,28,12,31,33.80
2012,02,28,12,32,37.00
2012,02,28,12,33,37.00
2012,02,28,12,34,48.30
2012,02,28,12,35,29.00
2012,02,28,12,36,33.80
2012,02,28,12,37,41.80
2012,02,28,12,38,41.80
2012,02,28,12,39,30.60
2012,02,28,12,40,40.20
2012,02,28,12,41,35.40
2012,02,28,12,42,46.70
2012,02,28,12,43,37.00
2012,02,28,12,44,46.70
2012,02,28,12,45,45.10
2012,02,28,12,46,41.80
2012,02,28,12,47,40.20
2012,02,28,12,48,33.80
2012,02,28,12,49,32.20
2012,02,28,12,50,37.00
2012,02,28,12,51,33.80
2012,02,28,12,52,46.70
2012,02,28,12,53,53.10
2012,02,28,12,54,46.70
2012,02,28,12,55,48.30
2012,02,28,12,56,48.30
2012,02,28,12,57,48.30
2012,02,28,12,58,40.20
2012,02,28,12,59,51.50
2012,02,28,13,00,40.20
2012,02,28,13,01,38.60
2012,02,28,13,02,41.80
2012,02,28,13,03,40.20
2012,02,28,13,04,29.00
2012,02,28,13,05,35.40
2012,02,28,13,06,45.10
2012,02,28,13,07,48.30
2012,02,28,13,08,49.90
2012,02,28,13,09,35.40
2012,02,28,13,10,41.80
2012,02,28,13,11,45.10
2012,02,28,13,12,41.80
2012,02,28,13,13,46.70
2012,02,28,13,14,35.40
2012,02,28,13,15,41.80
2012,02,28,13,16,38.60
2012,02,28,13,17,35.40
2012,02,28,13,18,29.00
2012,02,28,13,19,45.10
2012,02,28,13,20,43.50
2012,02,28,13,21,40.20
2012,02,28,13,22,38.60
2012,02,28,13,23,46.70
2012,02,28,13,24,41.80
2012,02,28,13,25,37.00
2012,02,28,13,26,49.90
2012,02,28,13,27,45.10
2012,02,28,13,28,30.60
2012,02,28,13,29,37.00
2012,02,28,13,30,53.10
2012,02,28,13,31,43.50
2012,02,28,13,32,51.50
2012,02,28,13,33,46.70
2012,02,28,13,34,33.80
2012,02,28,13,35,46.70
2012,02,28,13,36,30.60
2012,02,28,13,37,30.60
2012,02,28,13,38,38.60
2012,02,28,13,39,45.10
2012,02,28,13,40,37.00
2012,02,28,13,41,41.80
2012,02,28,13,42,45.10
2012,02,28,13,43,56.30
2012,02,28,13,44,48.30
2012,02,28,13,45,53.10
2012,02,28,13,46,46.70
2012,02,28,13,47,48.30
2012,02,28,13,48,38.60
2012,02,28,13,49,53.10
2012,02,28,13,50,45.10
2012,02,28,13,51,37.00
2012,02,28,13,52,49.90
2012,02,28,13,53,45.10
2012,02,28,13,54,35.40
2012,02,28,13,55,35.40
2012,02,28,13,56,38.60
2012,02,28,13,57,53.10
2012,02,28,13,58,43.50
2012,02,28,13,59,43.50
2012,02,28,14,00,41.80
2012,02,28,14,01,48.30
2012,02,28,14,02,41.80
2012,02,28,14,03,41.80
2012,02,28,14,04,35.40
2012,02,28,14,05,51.50
2012,02,28,14,06,53.10
2012,02,28,14,07,37.00
2012,02,28,14,08,46.70
2012,02,28,14,09,40.20
2012,02,28,14,10,53.10
2012,02,28,14,11,51.50
2012,02,28,14,12,43.50
2012,02,28,14,13,51.50
2012,02,28,14,14,41.80
2012,02,28,14,15,57.90
2012,02,28,14,16,45.10
2012,02,28,14,17,64.40
2012,02,28,14,18,51.50
2012,02,28,14,19,38.60
2012,02,28,14,20,43.50
2012,02,28,14,21,40.20
2012,02,28,14,22,48.30
2012,02,28,14,23,64.40
2012,02,28,14,24,51.50
2012,02,28,14,25,64.40
2012,02,28,14,26,66.00
2012,02,28,14,27,48.30
2012,02,28,14,28,30.60
2012,02,28,14,29,53.10
2012,02,28,14,30,54.70
2012,02,28,14,31,57.90
2012,02,28,14,32,46.70
2012,02,28,14,33,35.40
2012,02,28,14,34,45.10
2012,02,28,14,35,57.90
2012,02,28,14,36,41.80
2012,02,28,14,37,35.40
2012,02,28,14,38,54.70
2012,02,28,14,39,49.90
2012,02,28,14,40,40.20
2012,02,28,14,41,48.30
2012,02,28,14,42,51.50
2012,02,28,14,43,43.50
2012,02,28,14,44,45.10
2012,02,28,14,45,41.80
2012,02,28,14,46,43.50
2012,02,28,14,47,45.10
2012,02,28,14,48,46.70
2012,02,28,14,49,49.90
2012,02,28,14,50,57.90
2012,02,28,14,51,62.70
2012,02,28,14,52,53.10
2012,02,28,14,53,35.40
2012,02,28,14,54,37.00
2012,02,28,14,55,66.00
2012,02,28,14,56,49.90
2012,02,28,14,57,57.90
2012,02,28,14,58,49.90
2012,02,28,14,59,64.40
2012,02,28,15,00,53.10
2012,02,28,15,01,64.40
2012,02,28,15,02,53.10
2012,02,28,15,03,53.10
2012,02,28,15,04,53.10
2012,02,28,15,05,61.20
2012,02,28,15,06,59.50
2012,02,28,15,07,40.20
2012,02,28,15,08,40.20
2012,02,28,15,09,51.50
2012,02,28,15,10,64.40
2012,02,28,15,11,49.90
2012,02,28,15,12,53.10
2012,02,28,15,13,59.50
2012,02,28,15,14,53.10
2012,02,28,15,15,64.40
2012,02,28,15,16,53.10
2012,02,28,15,17,57.90
2012,02,28,15,18,51.50
2012,02,28,15,19,56.30
2012,02,28,15,20,49.90
2012,02,28,15,21,48.30
2012,02,28,15,22,41.80
2012,02,28,15,23,53.10
2012,02,28,15,24,57.90
2012,02,28,15,25,49.90
2012,02,28,15,26,48.30
2012,02,28,15,27,43.50
2012,02,28,15,28,46.70
2012,02,28,15,29,59.50
2012,02,28,15,30,59.50
2012,02,28,15,31,56.30
2012,02,28,15,32,57.90
2012,02,28,15,33,38.60
2012,02,28,15,34,57.90
2012,02,28,15,35,46.70
2012,02,28,15,36,49.90
2012,02,28,15,37,38.60
2012,02,28,15,38,40.20
2012,02,28,15,39,64.40
2012,02,28,15,40,46.70
2012,02,28,15,41,53.10
2012,02,28,15,42,51.50
2012,02,28,15,43,57.90
2012,02,28,15,44,64.40
2012,02,28,15,45,43.50
2012,02,28,15,46,35.40
2012,02,28,15,47,32.20
2012,02,28,15,48,48.30
2012,02,28,15,49,48.30
2012,02,28,15,50,64.40
2012,02,28,15,51,54.70
2012,02,28,15,52,49.90
2012,02,28,15,53,74.00
2012,02,28,15,54,77.30
2012,02,28,15,55,57.90
2012,02,28,15,56,41.80
2012,02,28,15,57,40.20
2012,02,28,15,58,51.50
2012,02,28,15,59,66.00
2012,02,28,16,00,53.10
2012,02,28,16,01,51.50
2012,02,28,16,02,41.80
2012,02,28,16,03,48.30
2012,02,28,16,04,49.90
2012,02,28,16,05,45.10
2012,02,28,16,06,43.50
2012,02,28,16,07,51.50
2012,02,28,16,08,48.30
2012,02,28,16,09,32.20
2012,02,28,16,10,37.00
2012,02,28,16,11,41.80
2012,02,28,16,12,35.40
2012,02,28,16,13,29.00
2012,02,28,16,14,30.60
2012,02,28,16,15,35.40
2012,02,28,16,16,37.00
2012,02,28,16,17,35.40
2012,02,28,16,18,27.40
2012,02,28,16,19,37.00
2012,02,28,16,20,48.30
2012,02,28,16,21,45.10
2012,02,28,16,22,33.80
2012,02,28,16,23,43.50
2012,02,28,16,24,53.10
2012,02,28,16,25,45.10
2012,02,28,16,26,51.50
2012,02,28,16,27,62.70
2012,02,28,16,28,56.30
2012,02,28,16,29,48.30
2012,02,28,16,30,43.50
2012,02,28,16,31,57.90
2012,02,28,16,32,46.70
2012,02,28,16,33,48.30
2012,02,28,16,34,56.30
2012,02,28,16,35,43.50
2012,02,28,16,36,33.80
2012,02,28,16,37,33.80
2012,02,28,16,38,38.60
2012,02,28,16,39,49.90
2012,02,28,16,40,37.00
2012,02,28,16,41,35.40
2012,02,28,16,42,56.30
2012,02,28,16,43,51.50
2012,02,28,16,44,49.90
2012,02,28,16,45,41.80
2012,02,28,16,46,40.20
2012,02,28,16,47,45.10
2012,02,28,16,48,51.50
2012,02,28,16,49,38.60
2012,02,28,16,50,29.00
2012,02,28,16,51,25.70
2012,02,28,16,52,54.70
2012,02,28,16,53,51.50
2012,02,28,16,54,49.90
2012,02,28,16,55,30.60
2012,02,28,16,56,41.80
2012,02,28,16,57,46.70
2012,02,28,16,58,51.50
2012,02,28,16,59,43.50
2012,02,28,17,00,40.20
2012,02,28,17,01,41.80
2012,02,28,17,02,51.50
2012,02,28,17,03,46.70
2012,02,28,17,04,38.60
2012,02,28,17,05,37.00
2012,02,28,17,06,29.00
2012,02,28,17,07,43.50
2012,02,28,17,08,49.90
2012,02,28,17,09,45.10
2012,02,28,17,10,38.60
2012,02,28,17,11,49.90
2012,02,28,17,12,49.90
2012,02,28,17,13,46.70
2012,02,28,17,14,41.80
2012,02,28,17,15,45.10
2012,02,28,17,16,45.10
2012,02,28,17,17,56.30
2012,02,28,17,18,35.40
2012,02,28,17,19,49.90
2012,02,28,17,20,46.70
2012,02,28,17,21,41.80
2012,02,28,17,22,27.40
2012,02,28,17,23,38.60
2012,02,28,17,24,43.50
2012,02,28,17,25,35.40
2012,02,28,17,26,29.00
2012,02,28,17,27,38.60
2012,02,28,17,28,56.30
2012,02,28,17,29,43.50
2012,02,28,17,30,45.10
2012,02,28,17,31,35.40
2012,02,28,17,32,35.40
2012,02,28,17,33,41.80
2012,02,28,17,34,35.40
2012,02,28,17,35,38.60
2012,02,28,17,36,38.60
2012,02,28,17,37,56.30
2012,02,28,17,38,32.20
2012,02,28,17,39,32.20
2012,02,28,17,40,45.10
2012,02,28,17,41,41.80
2012,02,28,17,42,35.40
2012,02,28,17,43,45.10
2012,02,28,17,44,45.10
2012,02,28,17,45,57.90
2012,02,28,17,46,49.90
2012,02,28,17,47,46.70
2012,02,28,17,48,43.50
2012,02,28,17,49,38.60
2012,02,28,17,50,46.70
2012,02,28,17,51,54.70
2012,02,28,17,52,53.10
2012,02,28,17,53,43.50
2012,02,28,17,54,43.50
2012,02,28,17,55,53.10
2012,02,28,17,56,41.80
2012,02,28,17,57,37.00
2012,02,28,17,58,54.70
2012,02,28,17,59,45.10
2012,02,28,18,00,40.20
2012,02,28,18,01,43.50
2012,02,28,18,02,59.50
2012,02,28,18,03,57.90
2012,02,28,18,04,48.30
2012,02,28,18,05,53.10
2012,02,28,18,06,49.90
2012,02,28,18,07,49.90
2012,02,28,18,08,51.50
2012,02,28,18,09,30.60
2012,02,28,18,10,40.20
2012,02,28,18,11,56.30
2012,02,28,18,12,49.90
2012,02,28,18,13,48.30
2012,02,28,18,14,51.50
2012,02,28,18,15,41.80
2012,02,28,18,16,33.80
2012,02,28,18,17,40.20
2012,02,28,18,18,30.60
2012,02,28,18,19,45.10
2012,02,28,18,20,46.70
2012,02,28,18,21,54.70
2012,02,28,18,22,46.70
2012,02,28,18,23,46.70
2012,02,28,18,24,35.40
2012,02,28,18,25,40.20
2012,02,28,18,26,40.20
2012,02,28,18,27,56.30
2012,02,28,18,28,43.50
2012,02,28,18,29,51.50
2012,02,28,18,30,48.30
2012,02,28,18,31,40.20
2012,02,28,18,32,51.50
2012,02,28,18,33,53.10
2012,02,28,18,34,46.70
2012,02,28,18,35,40.20
2012,02,28,18,36,45.10
2012,02,28,18,37,38.60
2012,02,28,18,38,43.50
2012,02,28,18,39,59.50
2012,02,28,18,40,43.50
2012,02,28,18,41,43.50
2012,02,28,18,42,35.40
2012,02,28,18,43,48.30
2012,02,28,18,44,54.70
2012,02,28,18,45,64.40
2012,02,28,18,46,46.70
2012,02,28,18,47,53.10
2012,02,28,18,48,54.70
2012,02,28,18,49,45.10
2012,02,28,18,50,48.30
2012,02,28,18,51,46.70
2012,02,28,18,52,49.90
2012,02,28,18,53,54.70
2012,02,28,18,54,54.70
2012,02,28,18,55,40.20
2012,02,28,18,56,49.90
2012,02,28,18,57,40.20
2012,02,28,18,58,40.20
2012,02,28,18,59,53.10
2012,02,28,19,00,38.60
2012,02,28,19,01,43.50
2012,02,28,19,02,37.00
2012,02,28,19,03,48.30
2012,02,28,19,04,48.30
2012,02,28,19,05,48.30
2012,02,28,19,06,40.20
2012,02,28,19,07,41.80
2012,02,28,19,08,40.20
2012,02,28,19,09,43.50
2012,02,28,19,10,51.50
2012,02,28,19,11,46.70
2012,02,28,19,12,40.20
2012,02,28,19,13,53.10
2012,02,28,19,14,53.10
2012,02,28,19,15,53.10
2012,02,28,19,16,51.50
2012,02,28,19,17,49.90
2012,02,28,19,18,45.10
2012,02,28,19,19,53.10
2012,02,28,19,20,54.70
2012,02,28,19,21,53.10
2012,02,28,19,22,66.00
2012,02,28,19,23,59.50
2012,02,28,19,24,48.30
2012,02,28,19,25,49.90
2012,02,28,19,26,33.80
2012,02,28,19,27,46.70
2012,02,28,19,28,49.90
2012,02,28,19,29,40.20
2012,02,28,19,30,41.80
2012,02,28,19,31,45.10
2012,02,28,19,32,37.00
2012,02,28,19,33,33.80
2012,02,28,19,34,45.10
2012,02,28,19,35,48.30
2012,02,28,19,36,43.50
2012,02,28,19,37,45.10
2012,02,28,19,38,53.10
2012,02,28,19,39,33.80
2012,02,28,19,40,49.90
2012,02,28,19,41,46.70
2012,02,28,19,42,37.00
2012,02,28,19,43,49.90
2012,02,28,19,44,38.60
2012,02,28,19,45,56.30
2012,02,28,19,46,54.70
2012,02,28,19,47,48.30
2012,02,28,19,48,43.50
2012,02,28,19,49,40.20
2012,02,28,19,50,40.20
2012,02,28,19,51,48.30
2012,02,28,19,52,48.30
2012,02,28,19,53,41.80
2012,02,28,19,54,37.00
2012,02,28,19,55,40.20
2012,02,28,19,56,32.20
2012,02,28,19,57,43.50
2012,02,28,19,58,45.10
2012,02,28,19,59,37.00
2012,02,28,20,00,38.60
2012,02,28,20,01,37.00
2012,02,28,20,02,38.60
2012,02,28,20,03,41.80
2012,02,28,20,04,37.00
2012,02,28,20,05,43.50
2012,02,28,20,06,46.70
2012,02,28,20,07,41.80
2012,02,28,20,08,40.20
2012,02,28,20,09,46.70
2012,02,28,20,10,53.10
2012,02,28,20,11,53.10
2012,02,28,20,12,37.00
2012,02,28,20,13,37.00
2012,02,28,20,14,41.80
2012,02,28,20,15,30.60
2012,02,28,20,16,48.30
2012,02,28,20,17,56.30
2012,02,28,20,18,51.50
2012,02,28,20,19,32.20
2012,02,28,20,20,32.20
2012,02,28,20,21,35.40
2012,02,28,20,22,35.40
2012,02,28,20,23,40.20
2012,02,28,20,24,38.60
2012,02,28,20,25,46.70
2012,02,28,20,26,38.60
2012,02,28,20,27,35.40
2012,02,28,20,28,37.00
2012,02,28,20,29,30.60
2012,02,28,20,30,33.80
2012,02,28,20,31,49.90
2012,02,28,20,32,45.10
2012,02,28,20,33,61.20
2012,02,28,20,34,53.10
2012,02,28,20,35,53.10
2012,02,28,20,36,33.80
2012,02,28,20,37,43.50
2012,02,28,20,38,43.50
2012,02,28,20,39,40.20
2012,02,28,20,40,40.20
2012,02,28,20,41,40.20
2012,02,28,20,42,30.60
2012,02,28,20,43,37.00
2012,02,28,20,44,30.60
2012,02,28,20,45,48.30
2012,02,28,20,46,53.10
2012,02,28,20,47,29.00
2012,02,28,20,48,29.00
2012,02,28,20,49,38.60
2012,02,28,20,50,33.80
2012,02,28,20,51,53.10
2012,02,28,20,52,43.50
2012,02,28,20,53,45.10
2012,02,28,20,54,27.40
2012,02,28,20,55,46.70
2012,02,28,20,56,41.80
2012,02,28,20,57,43.50
2012,02,28,20,58,45.10
2012,02,28,20,59,48.30
2012,02,28,21,00,37.00
2012,02,28,21,01,35.40
2012,02,28,21,02,22.50
2012,02,28,21,03,22.50
2012,02,28,21,04,38.60
2012,02,28,21,05,40.20
2012,02,28,21,06,37.00
2012,02,28,21,07,33.80
2012,02,28,21,08,48.30
2012,02,28,21,09,48.30
2012,02,28,21,10,49.90
2012,02,28,21,11,38.60
2012,02,28,21,12,48.30
2012,02,28,21,13,51.50
2012,02,28,21,14,32.20
2012,02,28,21,15,45.10
2012,02,28,21,16,48.30
2012,02,28,21,17,53.10
2012,02,28,21,18,43.50
2012,02,28,21,19,48.30
2012,02,28,21,20,37.00
2012,02,28,21,21,38.60
2012,02,28,21,22,41.80
2012,02,28,21,23,46.70
2012,02,28,21,24,56.30
2012,02,28,21,25,49.90
2012,02,28,21,26,43.50
2012,02,28,21,27,41.80
2012,02,28,21,28,40.20
2012,02,28,21,29,37.00
2012,02,28,21,30,37.00
2012,02,28,21,31,41.80
2012,02,28,21,32,35.40
2012,02,28,21,33,30.60
2012,02,28,21,34,53.10
2012,02,28,21,35,41.80
2012,02,28,21,36,30.60
2012,02,28,21,37,41.80
2012,02,28,21,38,49.90
2012,02,28,21,39,51.50
2012,02,28,21,40,51.50
2012,02,28,21,41,35.40
2012,02,28,21,42,45.10
2012,02,28,21,43,24.20
2012,02,28,21,44,20.90
2012,02,28,21,45,33.80
2012,02,28,21,46,33.80
2012,02,28,21,47,40.20
2012,02,28,21,48,38.60
2012,02,28,21,49,43.50
2012,02,28,21,50,54.70
2012,02,28,21,51,49.90
2012,02,28,21,52,53.10
2012,02,28,21,53,43.50
2012,02,28,21,54,45.10
2012,02,28,21,55,49.90
2012,02,28,21,56,48.30
2012,02,28,21,57,29.00
2012,02,28,21,58,43.50
2012,02,28,21,59,38.60
2012,02,28,22,00,27.40
2012,02,28,22,01,33.80
2012,02,28,22,02,25.70
2012,02,28,22,03,30.60
2012,02,28,22,04,33.80
2012,02,28,22,05,29.00
2012,02,28,22,06,40.20
2012,02,28,22,07,35.40
2012,02,28,22,08,37.00
2012,02,28,22,09,41.80
2012,02,28,22,10,35.40
2012,02,28,22,11,40.20
2012,02,28,22,12,27.40
2012,02,28,22,13,35.40
2012,02,28,22,14,35.40
2012,02,28,22,15,30.60
2012,02,28,22,16,40.20
2012,02,28,22,17,35.40
2012,02,28,22,18,40.20
2012,02,28,22,19,33.80
2012,02,28,22,20,38.60
2012,02,28,22,21,30.60
2012,02,28,22,22,35.40
2012,02,28,22,23,29.00
2012,02,28,22,24,29.00
2012,02,28,22,25,49.90
2012,02,28,22,26,35.40
2012,02,28,22,27,35.40
2012,02,28,22,28,24.20
2012,02,28,22,29,29.00
2012,02,28,22,30,24.20
2012,02,28,22,31,24.20
2012,02,28,22,32,32.20
2012,02,28,22,33,30.60
2012,02,28,22,34,33.80
2012,02,28,22,35,37.00
2012,02,28,22,36,24.20
2012,02,28,22,37,22.50
2012,02,28,22,38,25.70
2012,02,28,22,39,32.20
2012,02,28,22,40,32.20
2012,02,28,22,41,35.40
2012,02,28,22,42,33.80
2012,02,28,22,43,25.70
2012,02,28,22,44,29.00
2012,02,28,22,45,37.00
2012,02,28,22,46,29.00
2012,02,28,22,47,32.20
2012,02,28,22,48,25.70
2012,02,28,22,49,25.70
2012,02,28,22,50,27.40
2012,02,28,22,51,24.20
2012,02,28,22,52,17.70
2012,02,28,22,53,27.40
2012,02,28,22,54,25.70
2012,02,28,22,55,20.90
2012,02,28,22,56,35.40
2012,02,28,22,57,29.00
2012,02,28,22,58,29.00
2012,02,28,22,59,38.60
2012,02,28,23,00,37.00
2012,02,28,23,01,37.00
2012,02,28,23,02,33.80
2012,02,28,23,03,43.50
2012,02,28,23,04,22.50
2012,02,28,23,05,33.80
2012,02,28,23,06,27.40
2012,02,28,23,07,25.70
2012,02,28,23,08,37.00
2012,02,28,23,09,32.20
2012,02,28,23,10,37.00
2012,02,28,23,11,33.80
2012,02,28,23,12,37.00
2012,02,28,23,13,37.00
2012,02,28,23,14,29.00
2012,02,28,23,15,35.40
2012,02,28,23,16,43.50
2012,02,28,23,17,37.00
2012,02,28,23,18,27.40
2012,02,28,23,19,27.40
2012,02,28,23,20,24.20
2012,02,28,23,21,24.20
2012,02,28,23,22,25.70
2012,02,28,23,23,25.70
2012,02,28,23,24,35.40
2012,02,28,23,25,41.80
2012,02,28,23,26,35.40
2012,02,28,23,27,22.50
2012,02,28,23,28,38.60
2012,02,28,23,29,35.40
2012,02,28,23,30,37.00
2012,02,28,23,31,51.50
2012,02,28,23,32,45.10
2012,02,28,23,33,45.10
2012,02,28,23,34,46.70
2012,02,28,23,35,29.00
2012,02,28,23,36,46.70
2012,02,28,23,37,41.80
2012,02,28,23,38,37.00
2012,02,28,23,39,27.40
2012,02,28,23,40,45.10
2012,02,28,23,41,33.80
2012,02,28,23,42,29.00
2012,02,28,23,43,32.20
2012,02,28,23,44,30.60
2012,02,28,23,45,40.20
2012,02,28,23,46,38.60
2012,02,28,23,47,30.60
2012,02,28,23,48,38.60
2012,02,28,23,49,41.80
2012,02,28,23,50,30.60
2012,02,28,23,51,22.50
2012,02,28,23,52,33.80
2012,02,28,23,53,33.80
2012,02,28,23,54,33.80